Theta_e
323 324 324 324 325 323 323 324 322 321 321 319 316 315 312 310 309 310 310 309 308 308 308 309 309 308 308 308 307 307 307 307 308 308 308 309 309 309 309 309 308 307 306 306 306 306 306 306 305 304 304 303 303 303 303 302 301 301 300 300 300 300 300 300 300 300 300 300 300 300 300 301 301 301
323 324 323 323 324 322 322 324 323 322 320 316 313 313 312 310 309 308 308 308 308 308 308 309 309 308 309 309 308 308 308 308 308 308 309 309 309 309 308 308 308 308 308 308 308 308 308 308 308 307 306 306 306 305 305 304 303 301 300 300 300 299 299 300 300 300 300 300 300 300 300 300 300 300
323 322 321 321 322 322 323 323 323 322 319 313 311 312 311 311 310 309 309 309 309 309 308 309 309 309 309 309 309 309 308 308 308 308 308 309 309 308 308 308 308 309 309 309 309 309 309 309 309 309 308 308 308 307 307 306 305 303 301 300 299 299 299 299 299 299 299 299 300 300 300 300 300 300
320 318 317 317 319 321 322 322 322 321 319 313 310 311 311 312 311 310 310 309 310 309 308 309 309 309 309 309 309 309 309 308 308 308 308 308 308 308 308 308 309 309 309 309 309 309 309 309 309 310 309 309 309 308 308 308 307 305 302 300 299 299 299 299 299 299 299 299 299 299 299 299 299 299
318 316 316 315 315 317 319 320 321 321 320 316 312 311 311 312 311 311 310 309 309 309 309 308 309 309 308 309 309 309 309 309 309 309 309 309 308 308 308 308 309 309 309 309 310 310 309 309 310 310 310 309 309 309 309 308 307 306 303 300 299 299 299 299 299 299 299 299 299 299 299 299 298 298
317 316 316 316 316 316 317 318 319 320 320 319 316 313 312 313 313 312 311 310 309 309 310 309 310 310 308 308 310 309 309 309 309 309 309 308 308 308 308 308 309 309 309 310 310 309 309 309 310 310 310 309 309 309 309 308 307 305 302 300 299 299 299 299 299 299 299 299 299 299 299 298 298 298
315 314 315 316 316 316 316 317 318 320 320 320 318 315 314 314 313 312 312 311 309 309 310 310 311 311 309 308 309 309 309 309 309 309 309 308 308 308 308 308 308 309 309 309 309 309 309 310 310 310 310 310 309 309 308 308 307 305 302 300 299 298 298 298 299 299 299 299 299 299 298 298 298 298
314 313 313 314 315 315 315 315 317 318 319 320 318 316 315 314 314 313 312 312 310 309 310 312 313 312 309 308 309 309 309 309 309 309 309 309 309 309 308 308 308 309 309 309 309 309 309 309 309 309 309 309 309 308 308 308 306 304 301 299 298 298 298 298 298 298 299 299 299 299 299 298 298 298
313 312 312 314 314 314 315 314 315 316 316 317 316 315 314 314 314 314 313 312 311 310 310 313 314 312 310 309 309 309 309 309 310 310 309 309 309 309 309 309 309 309 310 310 310 310 310 310 309 309 309 309 308 308 308 307 305 302 300 299 298 298 298 298 298 299 299 299 299 299 299 298 298 298
310 310 311 313 314 314 314 314 314 314 314 314 313 313 313 313 313 314 313 313 312 310 311 313 314 313 312 310 310 310 310 310 310 310 310 310 310 310 310 309 310 310 310 310 310 310 310 310 309 309 309 308 308 308 308 307 304 301 299 298 298 298 298 298 298 299 299 298 298 298 297 297 297 298
310 309 310 312 313 313 314 314 313 313 313 312 312 312 313 313 314 314 313 312 311 311 313 314 314 313 312 311 310 311 311 310 310 310 310 310 310 310 310 310 310 310 310 310 310 310 310 310 310 309 308 308 308 308 307 305 302 300 298 298 297 297 298 298 298 297 297 297 297 296 296 296 296 296
312 311 311 311 312 312 312 313 313 313 313 312 313 313 313 313 314 314 314 313 312 313 314 314 314 313 312 311 311 311 311 311 312 312 312 311 311 311 310 310 311 310 310 310 310 310 310 310 309 308 308 307 308 308 306 303 300 298 297 297 297 297 297 297 296 296 296 296 296 296 296 295 296 296
313 313 313 312 312 312 313 313 313 313 313 313 313 313 313 314 314 314 314 314 314 314 314 314 314 314 313 312 312 311 312 312 313 313 312 312 311 311 311 310 310 311 310 310 310 310 310 309 308 308 307 308 308 307 304 301 298 298 297 297 296 296 296 296 296 296 296 296 296 296 296 296 296 296
312 313 313 313 313 313 312 312 311 311 311 311 311 312 312 313 314 314 314 315 314 314 314 314 314 314 313 313 313 313 313 312 313 313 313 312 312 311 311 310 311 311 311 310 310 310 309 309 308 308 308 307 307 305 301 299 298 297 296 296 296 296 296 296 296 296 297 297 297 297 297 297 296 296
311 312 312 312 312 312 311 311 310 310 310 310 310 311 311 312 312 313 313 314 314 314 314 314 314 314 313 314 313 314 313 313 313 313 313 313 313 313 312 311 311 311 311 310 310 309 309 308 308 307 307 307 305 302 299 298 297 296 296 296 296 296 296 296 296 297 297 297 297 297 297 297 296 297
310 310 310 310 311 311 310 311 311 311 311 311 311 312 313 314 314 314 313 313 314 314 314 314 314 314 314 314 314 314 314 314 314 314 314 314 314 314 313 313 312 312 311 310 309 309 308 308 308 307 307 305 302 299 298 297 296 296 296 296 296 296 296 296 296 297 297 297 297 297 297 297 297 297
311 311 311 311 311 311 311 311 311 311 311 311 311 312 314 315 316 316 316 315 315 315 315 314 314 314 314 314 314 314 314 314 314 314 314 314 314 314 313 312 312 311 311 310 309 308 308 308 307 307 305 302 299 298 297 296 296 295 295 296 296 296 296 296 296 297 297 297 297 297 297 297 296 296
313 313 314 313 313 313 312 312 312 312 312 312 312 313 314 315 315 316 316 317 317 317 316 316 316 315 315 314 314 314 314 314 314 313 313 314 314 314 313 312 312 311 311 310 309 308 308 308 306 304 302 299 298 297 296 296 295 295 295 296 295 296 296 296 296 297 296 296 296 296 296 296 296 295
314 314 314 314 314 315 314 314 314 313 313 313 313 314 314 315 316 316 316 317 317 317 317 317 317 317 316 315 315 314 314 313 313 313 313 313 313 313 313 312 311 311 310 309 309 308 308 306 303 301 299 298 297 296 296 295 295 295 295 295 295 295 296 296 296 296 296 296 296 296 296 296 295 295
316 315 315 314 314 314 314 314 314 314 314 314 314 315 315 316 316 316 317 317 317 317 317 318 317 317 316 316 316 315 315 314 313 313 313 313 313 313 312 312 311 310 310 309 309 307 305 303 300 299 298 297 296 296 295 295 295 295 295 295 295 295 295 296 295 295 295 296 296 296 295 295 295 295
318 317 317 316 316 315 315 315 315 315 315 315 315 316 316 317 317 317 318 318 318 317 317 317 317 317 316 316 315 314 314 314 313 313 313 313 313 312 312 311 310 310 309 309 307 304 301 299 299 298 297 296 296 295 295 295 295 295 295 295 295 295 295 295 295 295 295 295 295 295 295 294 295 295
318 318 318 318 318 318 318 317 316 316 315 315 315 316 316 317 318 318 318 318 318 318 317 317 317 317 316 316 314 313 313 313 312 313 312 311 311 311 310 310 310 308 307 305 302 300 299 298 298 297 296 295 295 295 295 295 295 295 295 295 295 295 295 295 295 295 295 295 295 294 294 294 294 295
318 318 318 318 318 318 318 319 318 318 317 316 316 316 317 318 317 317 317 317 317 317 317 317 317 316 315 315 313 311 311 311 311 312 311 309 309 309 309 309 307 305 302 301 299 299 298 298 297 296 295 295 295 295 295 295 295 295 295 295 295 295 295 295 295 295 294 294 294 294 294 294 294 294
317 317 318 318 318 318 318 318 318 318 318 318 318 318 318 318 317 317 317 317 317 316 315 316 316 315 314 313 312 310 310 310 310 311 310 309 309 309 308 305 303 300 299 299 298 298 298 297 296 295 295 295 295 295 295 295 295 295 295 295 295 295 295 294 294 294 294 294 294 294 294 294 294 294
314 314 315 316 316 317 317 317 317 316 317 317 317 317 317 316 316 316 316 317 317 315 315 314 314 314 313 312 312 311 310 310 310 310 309 309 308 306 303 301 300 299 299 298 298 298 297 296 295 295 294 295 295 295 295 296 296 295 295 295 295 294 294 294 294 294 294 294 294 294 294 294 294 294
312 311 312 312 314 315 316 315 315 315 315 314 314 314 314 313 313 314 316 316 316 315 315 314 313 313 312 312 312 311 310 309 309 308 308 306 304 302 300 299 299 299 298 298 297 297 296 295 294 294 294 294 295 295 295 296 296 296 296 295 294 294 294 293 294 294 294 294 294 294 294 294 294 294
308 309 310 310 312 313 314 314 314 313 313 312 312 312 311 312 313 314 315 316 316 316 315 313 313 312 312 312 312 311 310 309 308 307 305 303 301 300 299 299 299 298 298 297 297 295 295 294 294 294 294 294 294 295 295 295 296 296 295 295 295 294 294 294 294 294 294 294 294 294 294 294 293 293
301 302 304 305 306 308 310 310 311 311 310 310 311 311 310 312 314 315 315 315 315 315 314 313 312 312 312 312 311 310 309 307 306 304 303 301 300 299 299 298 298 298 297 296 295 295 294 294 294 294 294 294 294 294 295 295 295 295 295 295 295 295 294 294 294 294 294 295 294 294 294 293 293 293
298 299 299 300 301 302 303 305 307 308 308 309 310 310 310 311 312 314 315 315 314 314 313 313 313 312 312 311 309 308 307 305 304 302 301 300 300 299 299 299 298 297 297 296 295 294 294 294 294 294 294 294 294 294 294 294 294 294 294 294 295 295 294 294 294 294 295 295 294 294 293 293 292 292
298 299 299 299 300 300 300 301 302 304 306 307 309 310 311 311 312 313 314 313 313 313 313 313 312 312 311 309 307 305 304 303 302 301 300 300 299 299 299 298 297 296 296 295 294 294 294 294 294 294 294 294 294 294 293 293 294 294 294 294 294 295 294 294 294 294 294 295 294 294 293 292 292 292
298 298 299 299 300 300 300 300 300 301 303 305 307 309 311 312 312 313 313 313 313 313 313 313 312 311 308 307 305 304 303 302 301 300 299 299 299 298 297 296 295 294 294 294 294 293 294 294 294 294 294 294 293 293 293 293 293 293 294 293 293 294 294 294 294 294 294 294 294 293 292 292 292 293
297 298 299 299 300 300 300 301 301 301 302 304 306 308 310 311 312 312 313 313 313 313 312 312 311 308 306 305 304 303 302 301 300 299 299 298 298 297 295 294 293 293 293 293 293 293 293 294 294 294 294 293 293 293 293 293 292 292 293 293 293 293 293 294 294 294 294 294 294 293 293 292 293 293
297 297 298 299 300 301 301 301 302 302 302 303 304 306 308 310 311 312 312 313 313 312 312 311 309 307 305 304 303 302 301 300 299 299 298 297 296 295 294 293 293 293 293 293 293 293 293 294 294 294 293 293 292 292 292 292 292 292 293 293 293 293 293 294 294 294 294 294 293 293 293 293 293 293
297 297 298 299 300 301 301 302 302 302 303 303 304 305 307 308 310 311 312 312 312 312 311 310 309 307 305 303 302 302 300 299 299 298 297 296 294 293 293 292 293 293 293 293 293 293 293 294 294 293 293 292 292 291 291 292 292 292 292 293 293 293 294 294 294 294 294 293 293 293 293 293 293 293
298 298 299 300 300 300 301 302 302 302 302 302 303 304 306 307 309 310 311 311 311 311 310 309 307 305 304 303 302 300 299 298 298 297 295 294 293 292 292 292 292 293 293 293 293 293 294 294 294 293 293 292 292 291 291 291 292 293 293 293 293 293 294 294 294 293 293 293 293 293 293 293 293 293
299 299 300 300 300 300 301 302 302 302 301 301 301 303 304 306 308 309 310 310 309 308 307 307 305 303 302 302 300 299 298 298 296 295 293 293 292 292 292 292 293 293 293 293 294 294 294 293 293 292 292 292 292 292 292 292 292 293 293 293 293 293 294 294 293 293 293 292 292 293 293 293 292 292
300 300 300 300 300 300 301 301 301 302 301 301 301 302 303 305 306 306 307 308 307 305 303 303 302 301 300 300 299 298 297 295 294 293 292 292 292 292 292 292 293 293 293 293 294 293 293 292 292 291 291 292 292 292 293 292 292 292 293 293 293 293 293 293 293 293 292 292 293 292 292 292 292 291
300 300 301 301 300 300 300 300 300 301 301 301 301 302 302 303 304 304 304 305 304 302 301 300 300 299 299 298 297 296 295 293 293 292 292 292 292 292 292 292 293 293 293 293 293 293 292 291 291 291 291 291 291 292 293 293 293 292 293 293 293 293 293 293 292 292 292 292 293 292 292 291 291 291
299 300 300 300 300 300 299 299 300 301 301 301 301 301 301 301 302 302 301 301 300 300 299 298 298 298 297 296 295 294 294 293 292 292 292 292 291 291 292 292 293 293 293 293 292 292 291 291 291 290 290 290 291 291 292 293 293 292 293 293 293 293 293 293 292 292 292 293 293 292 291 291 291 290
299 299 300 300 300 299 299 299 300 301 301 300 300 300 300 300 300 300 299 298 298 298 297 297 296 296 295 294 293 293 293 292 292 292 291 291 291 291 292 292 292 293 293 292 291 291 291 290 290 290 290 290 290 290 291 292 292 292 292 293 293 293 293 293 292 292 293 293 292 292 291 291 291 290
299 299 299 299 299 299 299 299 300 301 300 299 299 299 300 300 300 299 299 298 298 298 297 296 296 295 294 293 293 293 292 292 291 291 291 290 291 291 292 292 292 292 292 291 291 290 290 290 290 290 290 290 290 290 291 291 292 292 292 292 292 292 293 293 293 293 293 293 292 291 291 290 290 290
298 298 298 298 298 299 300 300 300 300 299 298 298 299 299 300 299 299 299 299 298 298 297 297 295 294 293 293 292 292 291 291 290 290 290 290 291 291 291 292 292 292 291 290 290 290 290 290 289 289 290 290 290 291 291 292 292 292 292 292 292 293 293 293 293 293 293 292 291 291 290 290 290 290
298 297 297 298 299 300 300 300 300 299 299 298 298 298 299 299 299 298 298 298 297 297 297 296 295 293 293 292 292 291 290 290 290 290 290 290 291 291 291 291 291 290 290 290 290 290 290 290 290 290 290 291 291 291 292 292 293 293 292 292 293 293 294 293 293 293 293 292 291 290 290 289 289 289
298 297 298 298 299 299 299 299 299 298 298 297 297 298 298 298 298 297 297 297 297 296 296 294 293 292 292 291 290 290 289 289 289 289 290 290 291 291 291 290 289 289 289 290 291 290 290 290 290 290 290 291 291 292 293 293 293 293 293 293 293 294 294 293 293 293 293 292 291 290 290 290 289 289
298 298 298 298 298 299 298 298 298 297 296 297 297 297 296 296 296 296 296 296 296 295 294 293 292 292 291 290 289 289 289 289 288 289 289 290 290 290 290 289 289 289 289 289 290 290 290 290 290 290 290 291 292 292 293 293 293 293 293 293 294 294 294 294 293 293 292 291 291 290 291 290 290 290
Wind_Speed
9 11 14 15 15 14 12 11 10 9 7 5 5 5 1 1 9 14 12 9 8 7 6 6 6 6 7 7 7 7 6 6 6 6 6 6 7 8 8 9 10 11 12 13 14 15 16 16 16 16 16 17 18 20 20 21 20 19 18 17 16 16 16 16 15 15 15 15 15 15 15 15 15 15
9 10 12 13 14 14 13 12 11 10 8 6 7 7 2 3 2 8 11 11 10 8 7 6 5 6 6 7 7 7 6 6 6 6 5 6 6 6 5 7 8 10 11 12 13 15 16 17 18 18 19 20 21 22 23 24 24 23 22 20 19 19 18 18 17 17 16 16 16 17 17 17 17 17
8 8 8 9 10 11 12 12 13 12 9 7 9 8 3 2 1 3 6 8 8 9 8 5 4 5 7 8 8 8 7 7 6 6 4 4 4 4 3 5 6 8 9 11 13 14 16 17 18 20 21 22 23 24 25 26 26 26 25 23 22 21 20 20 20 19 19 18 18 18 17 17 17 18
9 8 8 7 7 9 11 12 13 13 11 9 10 10 6 3 3 3 2 3 4 8 9 7 5 6 7 7 7 8 7 7 7 5 3 2 2 2 2 3 4 6 8 10 12 13 14 16 18 20 22 23 24 25 26 27 28 28 27 25 23 22 21 21 21 21 22 22 21 21 20 19 18 18
9 8 6 6 7 8 10 11 13 14 13 11 11 12 9 7 5 6 5 2 2 6 9 9 8 7 8 8 8 8 7 7 7 5 4 2 1 1 2 3 5 7 8 10 12 13 14 15 17 20 21 23 24 25 27 28 29 29 28 26 24 22 21 21 20 21 22 23 24 24 24 23 21 20
6 5 4 4 6 7 8 10 12 13 12 12 12 13 11 9 8 8 9 8 5 4 6 9 9 8 9 9 9 8 7 7 7 6 5 4 4 4 5 6 7 8 9 10 11 12 13 15 18 19 21 23 24 25 27 28 30 30 28 26 24 23 21 20 20 20 22 23 24 25 25 25 24 23
5 4 4 4 5 7 7 9 11 12 11 11 12 13 11 10 10 10 11 11 10 6 5 7 9 9 9 10 10 9 8 9 8 7 7 7 8 8 8 9 9 10 11 11 11 12 13 16 17 19 20 23 24 25 27 28 30 29 28 26 25 23 22 20 20 20 21 22 22 24 25 25 25 25
6 6 6 6 6 7 8 9 10 11 11 11 12 12 11 10 10 11 12 13 13 10 7 7 8 9 9 11 11 11 11 10 9 9 9 9 10 11 11 11 12 12 12 12 13 14 15 16 17 18 20 23 24 25 27 29 29 29 27 26 25 24 22 21 19 20 20 20 21 22 24 25 25 26
9 9 8 7 7 7 8 9 10 11 11 11 11 10 10 10 10 11 12 14 15 14 11 9 8 9 10 12 13 13 12 12 12 11 11 11 12 12 12 13 14 14 14 14 15 16 16 17 18 19 21 23 24 25 27 29 29 29 28 27 25 24 22 20 19 19 19 20 21 23 24 25 25 25
8 10 10 9 8 8 8 9 9 9 9 9 10 10 10 10 10 11 13 15 16 16 14 11 10 10 11 13 14 15 14 14 14 13 13 13 13 13 13 14 15 15 15 16 16 17 17 18 19 20 21 23 24 26 28 30 30 29 28 27 25 23 21 20 19 20 21 22 23 24 25 25 26 26
6 8 11 10 9 9 9 9 9 10 10 11 11 10 10 10 10 10 12 13 14 15 14 13 12 11 12 14 15 15 15 16 16 16 15 15 15 15 15 15 16 16 17 17 17 17 18 19 20 21 21 22 24 27 29 30 29 28 27 26 24 22 21 21 21 22 23 25 25 25 25 25 25 25
6 7 9 10 10 10 10 11 11 11 11 10 10 10 11 10 10 10 10 11 13 14 15 15 14 13 14 16 16 17 17 18 18 17 16 16 16 16 17 17 17 18 18 18 18 18 19 20 20 20 21 23 25 28 29 29 28 27 27 26 24 23 22 22 23 24 25 25 26 25 25 25 24 24
8 8 8 9 9 10 10 11 11 11 11 11 11 12 12 11 11 12 12 13 15 16 16 16 16 15 16 17 18 19 19 19 18 17 17 18 18 18 19 19 19 19 20 19 19 20 20 20 20 21 22 24 27 28 29 28 28 28 27 26 25 24 24 24 25 26 26 26 26 26 26 25 25 24
9 9 10 10 10 10 11 11 12 12 13 14 14 14 14 14 13 14 15 16 17 18 19 19 19 19 19 19 19 20 20 20 19 19 19 19 19 20 20 21 21 21 21 21 20 21 21 21 21 22 23 25 28 29 28 28 28 28 27 26 25 24 24 25 25 26 26 26 27 27 26 26 26 26
10 11 11 12 13 13 13 14 14 14 15 15 16 16 16 16 16 16 17 18 19 20 21 21 22 22 22 21 21 21 21 21 21 21 21 21 21 22 22 22 22 22 22 22 21 21 21 22 22 23 25 27 28 28 28 28 28 27 26 25 24 24 24 25 26 26 27 27 26 26 26 26 26 26
11 12 13 14 15 15 16 16 16 16 16 16 17 17 17 17 17 18 18 19 19 20 21 21 22 23 23 23 23 23 23 24 24 24 24 24 23 23 23 23 23 23 22 22 21 21 21 22 23 24 26 28 28 27 27 27 27 26 25 25 25 25 26 27 27 27 26 26 25 24 24 24 24 24
11 12 13 14 15 16 17 18 18 18 19 19 19 18 19 19 19 19 19 19 20 20 21 22 23 23 24 23 23 23 24 25 26 27 27 25 24 23 23 23 24 24 23 23 22 21 22 22 23 24 26 27 26 25 26 26 26 26 25 25 25 27 29 29 29 28 26 25 24 23 23 22 21 21
14 14 14 15 15 15 16 18 19 19 20 20 21 20 20 21 21 21 22 22 22 22 22 23 24 25 25 25 24 23 23 23 26 27 26 25 24 24 24 24 24 24 24 23 22 22 23 23 23 24 25 24 24 24 24 25 25 25 24 25 26 28 30 30 29 28 26 25 24 23 22 21 19 18
18 19 19 19 19 18 18 19 20 21 22 23 23 23 23 23 23 24 25 25 26 25 25 25 26 26 27 27 27 27 24 24 26 26 25 24 24 23 24 25 24 24 23 23 22 22 23 23 23 23 23 22 22 23 23 24 24 23 24 25 27 28 28 28 27 26 25 25 24 23 22 19 18 18
21 22 23 23 24 23 22 22 23 24 25 26 26 26 26 26 26 27 27 28 29 29 29 29 29 30 29 29 30 30 26 24 25 25 23 24 24 24 25 24 23 23 23 22 23 23 23 22 22 21 21 21 21 22 22 22 22 23 24 25 26 27 26 25 25 25 25 25 24 23 21 19 18 18
24 24 25 26 26 27 26 26 26 27 28 29 29 30 30 30 31 31 30 30 30 31 32 33 33 33 33 34 35 33 29 25 24 24 26 27 27 25 24 24 22 22 22 22 22 22 21 21 21 21 21 21 21 20 20 20 21 23 24 25 25 25 24 24 23 24 24 24 24 22 21 20 19 19
29 29 29 29 29 29 29 28 29 29 31 32 32 33 33 33 34 33 32 32 33 34 35 35 34 34 34 34 33 30 27 24 23 24 26 26 24 23 23 22 21 20 20 20 20 19 19 20 20 21 21 21 20 19 18 19 21 24 25 24 23 23 23 23 23 23 23 23 22 22 21 21 21 21
30 31 31 32 32 32 32 30 29 29 30 31 31 32 33 34 35 34 33 34 35 36 35 34 32 32 32 31 28 26 25 22 22 24 25 23 21 21 21 21 20 19 18 17 18 18 18 19 20 20 21 21 20 19 19 20 22 23 24 23 22 22 22 22 21 21 21 21 21 21 21 21 22 23
32 31 31 31 31 32 32 31 29 28 28 28 29 29 31 33 33 32 32 32 32 33 33 32 31 31 30 27 24 23 23 23 23 26 26 23 21 21 21 20 19 17 17 17 17 18 18 19 19 20 20 21 21 21 21 21 22 23 23 23 22 22 22 21 19 19 19 19 19 20 21 21 22 22
35 35 34 33 31 30 30 30 30 28 27 27 27 29 30 31 31 30 29 28 28 28 29 30 30 29 28 26 24 23 24 25 25 26 24 21 20 19 18 17 17 16 16 16 16 17 17 18 19 20 21 22 23 23 22 20 20 21 21 22 22 22 21 19 17 17 18 18 18 19 19 20 20 22
38 38 38 37 35 33 32 31 31 30 29 28 29 29 29 29 30 30 28 27 26 26 27 29 29 28 27 26 26 26 27 26 25 23 21 19 18 16 16 15 15 15 15 15 15 16 17 18 19 20 22 23 23 24 24 21 19 19 19 20 20 20 18 17 16 17 18 18 18 18 18 19 19 20
40 41 41 40 40 38 37 36 35 34 32 32 32 31 29 27 27 28 28 27 26 27 27 28 29 28 27 27 28 28 27 24 22 21 19 17 16 15 15 15 14 14 14 13 15 17 18 19 20 21 22 23 23 24 24 23 20 19 18 17 17 17 16 16 15 16 17 18 18 18 18 17 18 19
40 41 41 41 41 41 40 40 39 38 37 36 35 34 31 28 25 26 28 28 28 28 28 29 29 29 28 28 28 26 23 21 20 19 17 16 16 15 14 14 14 13 13 14 17 18 19 20 21 21 22 23 23 24 24 23 21 20 19 16 13 14 15 15 14 15 16 17 18 17 17 16 17 19
38 38 39 39 39 39 40 40 40 40 40 39 38 36 34 31 27 26 27 28 28 28 29 30 31 29 28 27 25 23 21 20 19 18 16 16 15 14 14 14 13 12 14 17 18 19 19 18 19 20 21 22 22 22 22 21 20 18 18 16 12 11 13 14 15 15 15 16 16 16 16 17 18 20
36 37 36 36 35 35 36 37 38 39 39 39 38 37 35 32 29 27 28 28 28 29 30 32 31 29 27 26 25 23 21 20 18 17 16 15 14 13 13 12 12 12 14 17 18 17 17 17 18 20 21 21 21 20 19 20 19 15 14 14 13 11 12 14 15 15 14 13 14 15 16 17 18 20
32 34 35 34 33 32 32 32 34 35 36 37 37 36 34 31 28 27 28 28 29 29 29 30 29 28 28 27 26 24 22 20 18 17 16 14 13 12 11 11 12 13 14 15 16 16 16 17 18 19 20 19 19 18 18 18 17 13 10 12 13 13 13 13 14 14 13 13 14 15 15 16 17 20
28 30 32 33 32 30 29 29 29 30 32 33 34 33 32 30 29 28 27 28 29 28 27 28 28 29 30 29 27 25 22 20 19 17 15 13 11 10 10 10 12 13 13 13 14 15 16 17 18 18 19 18 17 17 17 15 13 11 10 11 12 13 13 13 12 12 13 15 16 16 16 17 19 20
25 26 28 30 29 28 27 27 25 25 27 28 30 30 29 29 30 31 30 31 32 30 29 29 30 32 32 29 27 25 22 20 18 16 13 11 9 9 9 11 11 11 12 12 13 13 14 15 16 16 16 16 16 16 14 11 10 10 11 12 12 11 11 10 10 11 13 16 17 18 18 19 19 19
23 23 24 25 25 25 25 25 24 23 23 24 26 27 27 28 29 30 32 34 34 32 30 31 33 34 33 30 28 25 23 20 17 14 11 9 8 9 9 9 10 10 11 11 11 11 12 13 13 13 12 13 13 13 10 7 7 10 12 13 12 10 9 8 8 10 12 15 18 21 21 20 19 18
22 22 22 22 21 22 23 23 23 23 23 22 22 24 26 28 29 30 31 33 33 34 34 34 35 35 33 31 28 25 21 18 14 12 10 9 8 8 8 8 9 10 10 10 10 10 11 11 11 10 9 8 7 5 4 4 5 8 11 12 11 9 7 7 7 9 11 13 17 21 22 21 19 17
20 19 20 21 21 22 23 23 23 23 22 21 20 20 22 25 28 30 31 32 33 36 38 38 37 35 33 30 26 22 19 16 13 10 9 8 7 7 7 7 8 9 9 9 9 10 10 11 10 9 9 7 4 1 3 4 4 5 9 11 9 7 6 5 6 8 11 14 18 20 21 20 19 18
19 18 19 20 21 22 22 22 20 19 19 18 17 18 20 24 27 29 31 30 31 35 39 39 36 34 30 26 23 20 16 13 11 9 8 7 6 6 7 7 8 8 7 8 8 9 9 9 9 9 10 10 7 4 4 4 3 5 10 10 7 6 6 5 6 8 11 15 19 20 20 18 18 18
20 19 19 20 21 20 20 18 15 14 15 15 16 18 21 23 26 28 29 29 30 33 36 33 30 28 26 23 21 18 14 12 10 9 7 6 5 6 6 6 6 6 6 6 7 7 7 7 8 9 9 10 10 9 7 5 3 5 9 8 6 5 6 7 9 11 13 17 19 20 18 17 16 17
21 20 20 21 20 19 17 15 12 11 12 13 15 18 20 21 23 25 27 28 30 32 31 27 24 23 22 19 16 13 11 10 9 7 6 5 5 5 6 7 6 5 4 3 4 5 5 6 7 8 9 9 10 10 10 9 8 6 6 6 5 4 6 8 11 15 17 19 19 17 15 15 14 14
20 20 19 19 17 15 13 12 10 10 11 12 15 18 18 17 17 18 21 24 26 26 24 22 21 19 17 15 13 11 10 8 7 6 6 6 5 5 6 6 5 4 3 2 2 3 5 7 8 8 8 9 10 10 11 11 8 4 4 4 3 3 6 10 13 16 18 19 19 16 14 14 13 12
16 16 16 15 13 10 8 8 9 10 10 10 13 17 15 12 15 20 23 25 24 22 20 19 18 16 14 13 11 10 9 8 7 6 5 4 4 4 5 4 3 3 3 2 0 2 5 7 8 8 8 9 11 11 10 9 4 1 2 2 3 5 8 11 13 16 17 18 17 15 15 15 13 13
14 13 12 10 8 7 6 7 9 9 8 8 13 15 15 15 18 21 22 22 22 20 19 18 16 14 13 12 11 9 9 8 7 5 3 3 3 3 3 2 1 2 3 3 2 3 5 7 7 8 9 10 11 10 9 7 4 2 1 1 4 6 8 11 12 15 16 16 15 14 16 17 17 16
14 12 9 7 7 7 6 7 8 7 6 9 13 16 17 18 20 20 20 20 19 18 17 16 16 15 14 12 11 9 8 6 5 3 2 1 1 1 1 1 2 3 4 5 3 4 5 7 8 9 10 10 10 8 7 5 4 4 4 3 4 7 9 9 11 14 16 15 14 13 15 17 18 18
10 10 8 7 6 6 6 7 7 6 7 11 16 18 19 20 20 20 19 18 17 16 16 16 16 14 12 11 10 8 6 5 4 3 2 1 1 1 3 4 5 4 5 4 3 3 5 7 8 9 10 9 8 7 6 4 4 4 4 3 5 8 8 8 10 12 13 13 13 13 13 14 16 17
11 8 6 5 5 5 6 7 6 6 10 17 21 23 23 22 21 20 18 17 16 16 16 16 14 11 10 9 8 6 5 4 3 2 1 2 3 5 6 6 6 3 3 4 2 3 5 7 8 9 10 8 6 6 7 6 5 3 3 4 7 9 9 10 10 10 10 10 11 12 12 12 14 15
Wind_Direction
196 195 192 193 198 202 197 193 192 194 209 228 213 198 227 230 176 169 166 161 151 144 138 131 126 127 131 133 134 136 138 143 146 143 135 124 119 111 87 67 60 54 49 46 42 38 34 30 28 26 26 24 22 20 17 14 12 9 5 1 356 352 347 342 338 335 331 327 324 321 319 317 314 311
190 190 190 191 196 199 192 188 192 197 205 210 198 188 140 25 145 153 152 156 158 161 158 149 140 134 139 144 143 147 152 159 165 162 151 142 141 126 83 59 54 46 37 32 28 24 20 16 14 14 14 14 13 12 11 10 8 6 3 0 356 351 346 341 337 332 327 323 320 318 317 316 315 314
174 173 175 182 190 192 189 188 189 194 198 191 185 185 169 92 108 121 131 146 163 173 168 158 148 143 148 150 150 157 166 173 181 180 171 165 162 141 80 51 40 29 21 17 15 13 10 6 4 4 5 6 5 5 4 4 3 2 360 357 354 350 345 341 337 333 329 325 321 319 316 315 314 313
156 154 150 159 176 185 189 190 191 191 192 187 184 189 198 205 205 204 163 123 147 168 172 176 177 168 165 164 165 170 176 185 190 192 200 204 159 140 67 20 9 1 359 359 360 359 358 356 354 355 357 358 358 358 358 358 358 357 355 353 350 347 343 339 336 332 329 327 325 323 322 321 319 316
158 156 149 153 170 182 192 196 196 196 194 192 194 201 212 224 225 224 222 212 162 170 181 188 191 189 185 182 184 186 187 193 197 201 218 242 227 222 291 312 321 329 334 340 344 346 345 343 343 347 350 351 351 352 353 353 352 351 350 349 347 345 341 337 333 329 326 325 325 324 325 327 327 325
167 170 171 170 171 177 194 201 200 201 202 202 204 208 218 230 235 233 232 231 222 208 207 205 204 206 201 196 194 193 194 198 202 208 220 241 261 271 277 282 292 303 311 320 328 330 329 330 334 339 342 344 345 347 348 349 348 347 346 345 344 342 339 335 330 325 323 322 323 323 326 328 329 327
190 197 207 206 189 183 192 197 196 201 208 213 215 219 230 241 241 239 241 241 239 241 241 227 224 223 215 208 202 197 196 198 204 214 223 237 251 263 270 271 276 286 296 306 311 312 315 321 327 331 335 338 340 342 344 344 343 342 341 340 339 337 334 331 326 321 319 320 321 322 325 327 328 328
224 226 226 220 205 196 194 195 197 203 209 215 220 229 241 249 248 244 245 247 247 248 252 245 242 237 222 211 210 208 207 208 213 218 226 237 247 257 265 266 270 279 289 296 298 302 308 314 319 324 329 331 334 337 339 339 338 337 335 334 332 330 328 325 321 318 318 320 321 322 323 324 326 327
236 235 229 222 214 206 199 195 196 200 204 210 219 232 245 251 251 247 244 247 250 250 252 254 249 240 225 214 213 215 215 219 225 228 232 240 246 254 260 263 267 274 281 287 292 298 303 307 312 317 322 326 330 333 334 334 333 331 330 328 326 325 323 321 319 318 318 319 319 319 319 319 321 322
228 225 220 219 218 214 207 203 203 209 219 233 242 247 253 256 254 248 243 243 247 247 248 250 246 240 235 225 221 220 220 224 231 236 240 243 248 254 258 261 266 271 275 281 288 294 298 301 306 311 317 323 326 329 329 329 327 326 324 323 322 320 318 316 314 313 313 313 313 313 313 313 314 315
211 209 211 217 224 227 227 229 236 246 256 264 266 265 268 266 259 252 245 240 238 239 243 247 245 240 236 231 228 227 226 228 232 237 242 246 251 257 259 261 265 268 271 277 283 287 291 295 301 308 314 318 322 324 324 323 322 321 319 318 316 314 311 310 310 310 311 311 311 310 309 309 309 310
209 206 208 217 227 235 242 247 253 261 267 272 274 277 280 278 270 263 254 245 243 245 249 251 248 241 236 232 231 231 232 236 240 243 247 251 255 259 261 263 265 267 269 273 278 281 286 291 297 304 309 314 317 319 319 318 318 317 316 315 313 312 311 312 313 314 314 313 312 311 309 309 309 310
216 219 220 222 228 237 245 252 258 264 269 273 277 281 284 283 278 272 263 256 256 258 259 258 254 249 245 241 237 237 240 246 250 252 253 254 254 257 259 260 263 266 268 270 274 278 282 288 294 300 305 310 314 315 315 315 315 314 314 314 314 315 317 319 320 319 318 316 314 312 311 311 311 312
224 230 233 235 236 241 247 254 261 266 271 274 277 280 280 277 274 271 267 265 266 267 267 265 261 258 258 257 255 254 254 254 252 251 252 254 255 256 256 256 260 263 264 266 269 273 278 284 290 297 304 309 311 312 312 313 313 313 313 315 317 320 322 323 323 321 319 316 313 311 310 310 310 310
235 239 242 245 246 249 254 260 264 268 271 274 276 277 276 274 270 266 264 265 266 268 269 267 263 261 263 265 265 264 262 259 256 253 252 253 256 259 259 259 261 264 264 264 265 268 276 284 291 299 305 308 309 309 310 311 312 312 314 317 320 321 322 321 320 318 317 314 312 309 308 307 306 306
253 253 255 255 257 259 262 266 269 270 272 273 274 274 274 273 271 268 266 265 264 263 264 265 265 265 267 267 265 264 263 263 261 258 254 255 259 262 263 263 263 264 264 263 264 269 277 285 293 300 304 305 305 307 309 311 312 314 317 320 321 320 319 318 318 318 317 315 314 312 311 308 305 303
264 264 263 262 262 265 269 271 273 273 274 276 276 276 275 275 275 274 273 273 271 267 263 261 263 265 267 267 267 265 264 265 263 258 255 258 262 263 262 260 258 259 261 262 265 272 280 287 294 299 300 301 303 307 310 311 313 315 318 321 321 320 319 319 320 320 320 320 320 320 319 315 311 309
261 261 263 263 262 264 269 273 276 277 278 279 279 279 279 279 279 279 279 278 277 274 269 266 265 264 263 264 264 260 258 259 261 260 258 260 263 264 262 258 254 255 257 260 266 274 282 288 293 295 296 299 303 307 310 311 313 315 317 320 320 320 320 321 322 322 323 325 327 327 325 321 317 315
260 261 262 264 264 265 266 269 272 275 276 278 279 279 279 279 280 281 281 280 279 276 273 272 271 269 265 263 262 260 258 258 260 262 262 259 258 258 256 253 251 253 256 262 269 277 282 287 290 292 295 301 305 307 309 311 313 315 317 320 320 320 321 322 322 323 325 329 330 328 324 320 316 315
263 264 265 266 267 266 265 266 268 270 272 273 274 275 275 276 276 276 277 277 277 277 275 274 275 274 270 269 270 271 273 270 263 260 255 250 249 249 247 247 248 253 260 267 274 279 283 286 289 293 296 300 304 307 309 311 314 316 318 320 321 321 321 322 322 323 326 327 327 325 321 317 314 314
265 265 266 267 268 268 267 267 267 267 268 269 270 271 272 273 272 271 272 273 274 276 276 275 276 276 275 275 275 275 275 272 264 255 250 249 250 248 244 245 250 256 264 271 276 280 284 287 290 293 296 299 303 306 309 312 316 318 319 320 321 322 321 321 321 322 323 324 325 323 320 317 314 314
266 266 265 265 265 266 268 269 270 269 269 269 269 271 272 273 273 272 273 274 275 276 276 274 273 274 275 276 276 273 270 267 261 254 249 246 246 245 245 250 256 262 267 272 277 281 285 288 291 295 299 303 307 310 313 316 318 318 318 319 321 321 319 319 320 320 320 322 322 321 318 316 314 314
269 268 268 267 266 265 265 266 267 269 270 270 271 272 273 274 274 275 276 277 278 279 278 275 274 274 275 275 274 271 267 261 256 253 246 240 241 247 253 257 259 262 267 273 279 283 286 290 295 301 307 311 312 314 317 319 318 316 316 318 320 319 317 317 319 318 318 318 318 317 316 314 313 312
272 271 270 269 268 268 267 266 264 265 267 270 271 272 272 273 275 277 278 279 279 279 277 275 273 272 272 271 269 266 263 257 251 249 246 243 246 251 254 257 260 264 270 276 280 285 289 295 302 308 312 313 313 313 316 318 318 316 316 318 319 317 316 317 318 317 316 316 316 315 314 313 312 311
273 272 272 270 269 268 267 266 264 262 261 263 265 266 267 271 276 278 279 279 278 275 271 269 268 265 262 261 262 263 259 252 248 246 246 247 248 247 250 257 263 269 273 277 282 289 296 302 308 312 312 311 311 312 314 316 317 316 318 319 319 317 316 318 319 317 316 317 316 314 313 313 312 311
270 270 270 270 269 268 267 266 265 263 260 257 257 259 261 266 271 274 276 276 274 270 264 261 259 256 252 255 262 262 255 248 244 243 242 242 242 245 251 258 263 269 273 280 289 298 303 307 310 312 310 310 311 313 315 317 318 316 317 318 317 316 316 318 319 317 316 319 319 316 315 314 312 312
268 267 266 266 266 265 265 265 265 264 263 260 259 259 260 262 266 270 271 270 269 266 261 255 249 248 251 257 261 258 251 244 239 236 235 237 241 247 253 257 262 268 276 287 299 306 309 310 311 310 309 310 312 314 315 318 320 320 317 314 313 313 314 316 317 317 318 320 320 318 317 316 314 314
269 267 266 265 264 263 262 262 263 263 263 263 262 261 260 259 261 262 263 264 264 261 255 249 245 248 254 258 257 249 241 235 231 230 232 237 243 248 253 259 265 275 290 303 309 308 308 307 307 308 309 311 312 314 315 317 321 323 319 314 310 309 311 315 318 319 321 322 321 321 322 321 320 320
269 269 269 268 266 265 263 262 262 262 262 262 262 261 259 256 255 255 257 260 260 257 250 246 247 251 254 251 244 235 228 225 226 229 232 236 241 247 254 262 272 288 302 306 304 302 302 304 306 308 310 311 312 314 316 317 323 325 320 315 311 308 310 317 321 323 325 324 322 325 328 328 327 325
270 269 270 271 271 270 269 266 265 264 263 262 261 260 259 255 252 253 255 255 256 255 250 248 250 251 245 235 225 220 219 222 224 228 231 234 239 248 259 271 285 298 301 298 296 298 302 306 309 310 310 311 313 315 317 318 322 325 318 313 314 315 317 320 322 324 326 324 322 326 330 329 326 324
271 270 270 271 272 274 274 272 270 267 265 263 261 260 260 255 251 253 255 254 254 254 253 253 251 242 229 220 215 214 215 217 220 224 228 233 241 255 271 284 293 297 296 294 295 301 306 309 312 312 312 313 314 315 318 319 320 321 316 310 313 319 322 323 323 324 324 322 322 326 328 327 324 322
271 269 268 270 272 275 277 278 276 272 269 266 264 262 260 256 253 252 251 251 250 248 247 247 240 224 214 211 211 211 212 214 217 222 227 235 248 266 280 284 286 289 290 292 297 304 308 311 314 314 313 314 315 315 317 319 317 317 314 308 310 317 320 320 321 321 319 319 323 325 327 328 327 324
275 270 267 267 271 275 279 282 284 280 274 270 266 263 260 256 252 250 249 248 245 241 239 236 225 213 207 207 206 207 210 212 215 220 228 239 253 266 273 275 278 282 286 291 298 306 310 312 314 314 313 316 316 315 317 319 315 309 305 305 312 319 320 321 324 320 316 319 323 326 331 333 331 328
286 280 273 270 273 278 282 286 287 285 281 274 266 260 256 252 250 249 250 248 243 238 233 226 215 207 205 204 203 205 209 209 211 218 226 236 248 257 264 271 275 281 289 297 303 308 309 311 312 312 315 318 315 313 317 321 310 300 300 307 319 327 327 328 327 320 320 325 325 326 332 337 337 334
295 290 284 280 280 282 284 284 283 284 285 284 276 264 254 249 248 248 249 249 245 236 224 213 206 203 202 201 200 202 203 204 208 216 223 232 244 252 261 271 279 288 299 304 306 307 308 309 310 313 323 328 317 309 331 338 308 290 296 310 325 335 332 331 327 322 326 330 328 328 333 338 341 341
301 296 291 288 286 282 280 279 279 280 283 285 285 280 266 254 249 246 245 248 246 233 215 202 197 196 195 194 195 195 196 199 204 210 219 228 239 252 268 281 291 300 304 303 305 308 310 313 319 327 339 344 336 354 32 12 336 290 292 307 324 332 328 332 336 332 332 335 335 336 339 341 343 345
303 298 294 294 292 285 279 277 279 283 286 286 288 287 277 263 252 243 238 240 238 223 206 195 189 187 186 187 188 187 187 193 198 204 213 223 237 260 278 289 296 300 300 300 305 312 317 323 328 333 338 343 348 5 31 37 18 304 299 311 329 332 329 343 346 338 339 343 345 344 343 343 345 346
303 299 296 298 299 294 285 280 283 290 295 296 296 291 281 268 253 238 230 227 220 208 198 189 182 179 181 184 184 181 180 183 190 198 208 224 247 269 281 288 290 289 290 297 306 315 324 328 329 330 335 345 351 352 354 16 23 313 304 317 338 337 339 352 351 347 352 354 351 348 345 346 349 347
302 299 295 296 299 297 290 285 288 295 300 301 298 288 278 266 250 233 219 208 198 190 184 179 174 175 177 176 173 172 174 179 187 196 210 229 248 261 270 277 279 273 267 279 299 313 320 321 320 325 330 335 340 342 340 343 346 327 311 326 345 348 356 2 358 356 357 353 350 349 349 348 348 345
299 297 294 293 294 292 286 282 287 295 300 299 288 278 270 258 237 210 187 175 171 168 166 165 166 170 170 167 166 170 173 176 184 198 214 230 243 254 264 273 273 256 237 234 262 294 307 315 319 323 326 330 336 340 336 335 337 328 312 329 2 22 14 8 3 359 353 347 345 349 352 349 344 338
291 291 292 289 285 280 275 274 282 291 294 284 270 262 253 228 195 174 162 160 162 164 165 167 168 168 167 166 167 169 171 174 181 193 208 225 241 258 270 275 265 230 200 170 143 312 314 323 330 338 343 343 345 346 343 343 358 136 266 326 40 46 17 5 0 354 348 345 347 350 354 355 354 351
296 295 295 286 270 254 250 262 274 283 284 266 251 242 225 198 177 168 165 168 171 174 175 176 172 167 164 164 163 165 170 175 176 180 195 219 242 262 273 265 208 159 123 95 55 354 338 342 353 2 357 346 344 351 356 1 24 83 124 52 49 27 5 360 357 350 346 348 352 356 360 4 7 7
306 300 294 278 257 247 255 270 272 268 259 243 230 217 201 185 176 172 172 173 174 174 175 172 166 160 159 161 162 163 167 170 167 166 181 206 230 254 251 124 117 109 94 75 41 6 1 4 4 2 353 341 340 352 5 10 28 61 80 74 32 1 351 353 352 348 346 349 355 3 8 10 11 11
325 302 285 271 264 267 279 282 272 257 237 219 206 194 185 177 170 168 168 166 163 164 162 156 151 150 152 155 157 158 159 159 154 156 170 175 156 128 91 78 79 99 113 103 64 18 14 13 4 357 352 345 342 357 17 40 59 62 56 30 357 345 341 342 345 347 346 347 355 5 10 10 10 10
5 340 310 296 303 314 310 292 271 241 213 200 190 179 172 168 163 159 158 155 151 149 144 139 138 141 143 145 149 149 144 138 135 145 163 137 106 93 83 71 61 71 127 137 108 39 24 15 7 3 359 350 347 5 25 41 54 53 20 353 347 342 337 335 338 343 346 351 1 8 5 5 8 8